This demonstration page uses our WeatherBlox Daily Observations layout. Learn more.

Left ArrowRight Arrow

Hourly Observations for June 8, 2021

Temp ( °F °C ) Dew Point ( °F °C ) Humidity (%) Winds ( mph kmh ) Pressure ( in mb ) Visibility ( mi km ) Precip ( " mm )
12:51 am 00:51 Clear 79 26.1 24 -4.4 13 13 ESE 3 6 29.72 1007 10 16 N/A
1:51 am 01:51 Clear 73 22.8 22 -5.6 15 15 E 7 11 29.73 1007 10 16 N/A
2:51 am 02:51 Clear 69 20.6 21 -6.1 16 16 ENE 3 6 29.74 1007 10 16 N/A
3:51 am 03:51 Clear 65 18.3 20 -6.7 18 18 WNW 6 9 29.75 1007 10 16 N/A
4:51 am 04:51 Clear 63 17.2 22 -5.6 21 21 N N/A 29.78 1008 10 16 N/A
5:51 am 05:51 Sunny 67 19.4 25 -3.9 20 20 ESE 7 11 29.79 1009 10 16 N/A
6:51 am 06:51 Sunny 74 23.3 26 -3.3 17 17 N N/A 29.80 1009 10 16 N/A
7:51 am 07:51 Sunny 79 26.1 28 -2.2 15 15 N N/A 29.81 1010 10 16 N/A
8:51 am 08:51 Sunny 82 27.8 28 -2.2 14 14 N N/A 29.83 1010 10 16 N/A
9:51 am 09:51 Sunny 85 29.4 27 -2.8 12 12 undefined N/A 29.83 1010 10 16 N/A
10:51 am 10:51 Sunny 88 31.1 26 -3.3 10 10 S 6 9 29.83 1010 10 16 N/A
11:51 am 11:51 Sunny 91 32.8 23 -5 8 8 VRB 3 6 29.81 1009 10 16 N/A
12:51 pm 12:51 Sunny 92 33.3 21 -6.1 7 7 W 7 11 29.80 1009 10 16 N/A
1:51 pm 13:51 Sunny 94 34.4 20 -6.7 7 7 NW 8 13 29.79 1009 10 16 N/A
2:51 pm 14:51 Mostly Sunny 96 35.6 19 -7.2 6 6 VRB 7 11 29.79 1009 10 16 N/A
3:51 pm 15:51 Sunny 94 34.4 19 -7.2 6 6 NNW 6 9 29.78 1009 10 16 N/A
4:51 pm 16:51 Sunny 97 36.1 18 -7.8 6 6 N 8 13 29.77 1008 10 16 N/A
5:51 pm 17:51 Sunny 96 35.6 16 -8.9 5 5 NW 14 22 29.76 1008 10 16 N/A
6:51 pm 18:51 Mostly Sunny 93 33.9 12 -11.1 5 5 W 9 15 29.76 1008 10 16 N/A
7:51 pm 19:51 Partly Cloudy 88 31.1 16 -8.9 7 7 NW 15 24 29.79 1009 10 16 N/A
8:51 pm 20:51 Clear 84 28.9 16 -8.9 8 8 NNW 12 19 29.81 1010 10 16 N/A
9:51 pm 21:51 Clear 81 27.2 15 -9.4 8 8 NW 10 17 29.84 1010 10 16 N/A
10:51 pm 22:51 Clear 76 24.4 14 -10 9 9 NW 9 15 29.85 1011 10 16 N/A
11:51 pm 23:51 Clear 74 23.3 13 -10.6 9 9 WNW 8 13 29.85 1011 10 16 N/A

Powered by AerisWeather